N2RFA-13 Weather Reports


Display with metric or nautical units.
time (UTC)temp
F
wind
direction
speed
MPH
gust
MPH
rain 1hr
in
rain 24hr
in
rain mn
in
humidity
%
barometer
mb
20260505210039 80 135 2.0 6.0 0.00 0.00 0.00 35 1008.0
20260505204537 80 125 1.0 8.0 0.00 0.00 0.00 36 1007.9
20260505203039 80 133 2.0 9.0 0.00 0.00 0.00 38 1008.0
20260505201537 80 163 2.0 8.0 0.00 0.00 0.00 38 1008.2
20260505200134 80 194 4.0 8.0 0.00 0.00 0.00 36 1008.3
20260505194534 81 179 3.0 7.0 0.00 0.00 0.00 38 1008.3
20260505193032 81 194 2.0 6.0 0.00 0.00 0.00 37 1008.3
20260505191533 81 169 2.0 8.0 0.00 0.00 0.00 38 1008.4
20260505190034 81 149 3.0 8.0 0.00 0.00 0.00 37 1008.7
20260505184528 82 138 3.0 8.0 0.00 0.00 0.00 33 1008.8
20260505183033 81 173 3.0 7.0 0.00 0.00 0.00 36 1009.2
20260505181524 80 122 3.0 6.0 0.00 0.00 0.00 39 1009.3
20260505180042 81 177 3.0 8.0 0.00 0.00 0.00 38 1009.6
20260505174522 81 156 2.0 9.0 0.00 0.00 0.00 41 1009.5
20260505173021 81 176 3.0 9.0 0.00 0.00 0.00 41 1009.7
20260505171518 81 160 2.0 8.0 0.00 0.00 0.00 41 1009.9
20260505170016 82 113 2.0 6.0 0.00 0.00 0.00 42 1010.0
20260505164515 81 153 1.0 7.0 0.00 0.00 0.00 44 1010.2
20260505163014 81 148 2.0 6.0 0.00 0.00 0.00 43 1010.3
20260505161511 81 122 1.0 6.0 0.00 0.00 0.00 43 1010.4
20260505153005 78 145 2.0 5.0 0.00 0.00 0.00 48 1011.2
20260505151559 77 160 2.0 5.0 0.00 0.00 0.00 48 1011.1
20260505124525 65 143 1.0 4.0 0.00 0.00 0.00 67 1011.5
20260505123029 63 145 0.0 3.0 0.00 0.00 0.00 73 1011.3
20260505121515 59 134 1.0 3.0 0.00 0.00 0.00 81 1011.4
20260505120019 57 133 0.0 0.0 0.00 0.00 0.00 93 1011.5
20260505114507 55 133 0.0 1.0 0.00 0.00 0.00 93 1011.7
20260505113004 54 133 0.0 0.0 0.00 0.00 0.00 92 1011.7
20260505111509 53 133 0.0 1.0 0.00 0.00 0.00 92 1011.4
20260505101608 52 167 0.0 1.0 0.00 0.00 0.00 85 1011.7
20260505100104 51 179 0.0 0.0 0.00 0.00 0.00 84 1011.5
20260505094556 50 178 0.0 0.0 0.00 0.00 0.00 85 1011.3
20260505093102 49 178 0.0 1.0 0.00 0.00 0.00 87 1011.3
20260505091555 48 294 0.0 1.0 0.00 0.00 0.00 87 1011.0
20260505090052 48 294 0.0 2.0 0.00 0.00 0.00 86 1010.7
20260505084555 49 210 0.0 1.0 0.00 0.00 0.00 86 1010.7
20260505083049 49 211 0.0 0.0 0.00 0.00 0.00 85 1011.0
20260505081601 49 211 0.0 1.0 0.00 0.00 0.00 84 1010.9
20260505080058 49 211 0.0 1.0 0.00 0.00 0.00 84 1010.8
20260505074547 49 211 0.0 1.0 0.00 0.00 0.00 84 1010.8
20260505073048 49 210 0.0 1.0 0.00 0.00 0.00 83 1010.8
20260505071552 50 210 0.0 1.0 0.00 0.00 0.00 82 1010.9
20260505070045 50 210 0.0 1.0 0.00 0.00 0.00 82 1010.9
20260505064544 50 210 0.0 0.0 0.00 0.00 0.00 82 1011.0
20260505063049 49 210 0.0 1.0 0.00 0.00 0.00 82 1011.0
20260505061545 49 210 0.0 1.0 0.00 0.00 0.00 81 1011.1
20260505060042 49 209 0.0 1.0 0.00 0.00 0.00 81 1011.1
20260505054545 49 194 0.0 1.0 0.00 0.00 0.00 80 1011.3
20260505053044 49 194 0.0 0.0 0.00 0.00 0.00 80 1011.2
20260505051540 50 194 0.0 0.0 0.00 0.00 0.00 79 1011.3
20260505041528 51 194 0.0 0.0 0.00 0.00 0.00 76 1011.4
20260505040025 52 195 0.0 1.0 0.00 0.00 0.00 75 1011.5
20260505034525 53 194 0.0 0.0 0.00 0.00 0.00 73 1011.4
20260505033026 54 194 0.0 0.0 0.00 0.00 0.00 71 1011.6
20260505031531 54 195 0.0 0.0 0.00 0.00 0.00 69 1011.7
20260505030023 54 194 0.0 0.0 0.00 0.00 0.00 69 1011.7
20260505024523 54 194 0.0 0.0 0.00 0.00 0.00 70 1011.8
20260505023023 55 194 0.0 0.0 0.00 0.00 0.00 68 1011.8
20260505021521 56 194 0.0 0.0 0.00 0.00 0.00 64 1011.8
20260505020021 58 194 0.0 0.0 0.00 0.00 0.00 63 1011.9
20260505014521 59 194 0.0 0.0 0.00 0.00 0.00 59 1011.8
20260505013023 60 194 0.0 0.0 0.00 0.00 0.00 56 1011.7
20260505011526 61 194 0.0 0.0 0.00 0.00 0.00 53 1011.5
20260505010029 62 194 0.0 2.0 0.00 0.00 0.00 51 1011.3
20260505004519 63 194 0.0 1.0 0.00 0.00 0.00 51 1011.2
20260505003018 63 194 0.0 1.0 0.00 0.00 0.00 50 1011.0
20260505001518 64 194 0.0 3.0 0.00 0.00 0.00 49 1010.9
20260505000032 65 194 0.0 2.0 0.00 0.00 0.00 47 1010.6
20260504234516 66 194 0.0 3.0 0.00 0.00 0.00 46 1010.4
20260504233017 66 194 0.0 2.0 0.00 0.00 0.00 44 1010.1
20260504231516 67 194 1.0 6.0 0.00 0.00 0.00 43 1010.0
20260504230016 67 194 0.0 3.0 0.00 0.00 0.00 42 1009.9
20260504224515 67 194 1.0 3.0 0.00 0.00 0.00 42 1009.8
20260504223014 68 194 0.0 4.0 0.00 0.00 0.00 42 1009.7
20260504221527 68 194 1.0 4.0 0.00 0.00 0.00 39 1009.8
20260504220011 68 195 0.0 2.0 0.00 0.00 0.00 41 1010.0
20260504214509 68 194 1.0 10.0 0.00 0.00 0.00 39 1010.1
20260504213009 69 194 1.0 5.0 0.00 0.00 0.00 39 1010.3
20260504211507 69 146 1.0 4.0 0.00 0.00 0.00 39 1010.4